ANE81BV LEMH-LEPA

Flight info

Callsign ANE81BV
Flight time 0h 28m
Altitude 11000
Route MAMEB
Aircraft AT76/M-SDFGIRY/S

Departure

Time 2026-05-08 15:12
Airport Menorca Airport (LEMH)

Arrival

Time 2026-05-08 15:40
Airport Palma de Mallorca Airport (LEPA)
Time Latitude Longitude Altitude Speed Heading
2026-05-08 15:00 39.86527 4.22421 291 ft 0 kts 98°
2026-05-08 15:07 39.86526 4.22426 294 ft 1 kts 113°
2026-05-08 15:07 39.86520 4.22427 294 ft 1 kts 169°
2026-05-08 15:07 39.86513 4.22420 295 ft 2 kts 223°
2026-05-08 15:07 39.86516 4.22382 293 ft 8 kts 281°
2026-05-08 15:08 39.86561 4.22336 293 ft 12 kts 12°
2026-05-08 15:08 39.86618 4.22350 291 ft 13 kts
2026-05-08 15:08 39.86757 4.22379 291 ft 17 kts
2026-05-08 15:08 39.86867 4.22402 291 ft 13 kts
2026-05-08 15:09 39.86920 4.22338 294 ft 12 kts 276°
2026-05-08 15:09 39.86952 4.22255 296 ft 10 kts 338°
2026-05-08 15:09 39.87023 4.22261 298 ft 11 kts 10°
2026-05-08 15:09 39.87107 4.22279 302 ft 13 kts
2026-05-08 15:10 39.87204 4.22300 306 ft 15 kts
2026-05-08 15:10 39.87311 4.22323 307 ft 13 kts 10°
2026-05-08 15:10 39.87378 4.22317 307 ft 10 kts 322°
2026-05-08 15:10 39.87396 4.22221 308 ft 12 kts 274°
2026-05-08 15:11 39.87378 4.22122 308 ft 11 kts 232°
2026-05-08 15:11 39.87322 4.22082 308 ft 8 kts 188°
2026-05-08 15:11 39.87084 4.22035 308 ft 66 kts 189°
2026-05-08 15:11 39.86436 4.21901 354 ft 115 kts 186°
2026-05-08 15:12 39.85590 4.21749 735 ft 131 kts 183°
2026-05-08 15:12 39.84631 4.21582 1218 ft 145 kts 184°
2026-05-08 15:12 39.83635 4.21357 1729 ft 147 kts 185°
2026-05-08 15:12 39.82575 4.21155 1900 ft 165 kts 184°
2026-05-08 15:13 39.81380 4.20987 2194 ft 172 kts 181°
2026-05-08 15:13 39.80181 4.20822 2598 ft 174 kts 183°
2026-05-08 15:13 39.78985 4.20655 3022 ft 172 kts 187°
2026-05-08 15:13 39.77973 4.19847 3381 ft 181 kts 233°
2026-05-08 15:14 39.77642 4.18243 3680 ft 188 kts 262°
2026-05-08 15:14 39.77482 4.16548 4024 ft 189 kts 261°
2026-05-08 15:14 39.77341 4.14870 4384 ft 190 kts 262°
2026-05-08 15:14 39.77227 4.13155 4738 ft 190 kts 263°
2026-05-08 15:15 39.77118 4.11446 5099 ft 189 kts 263°
2026-05-08 15:15 39.77006 4.09736 5446 ft 189 kts 263°
2026-05-08 15:15 39.76899 4.08033 5808 ft 188 kts 263°
2026-05-08 15:15 39.76782 4.06340 6169 ft 187 kts 262°
2026-05-08 15:16 39.76670 4.04651 6508 ft 187 kts 262°
2026-05-08 15:16 39.76560 4.02972 6847 ft 186 kts 262°
2026-05-08 15:16 39.76448 4.01304 7168 ft 184 kts 262°
2026-05-08 15:16 39.76335 3.99651 7506 ft 183 kts 261°
2026-05-08 15:17 39.75899 3.98152 7776 ft 178 kts 231°
2026-05-08 15:17 39.75133 3.96903 8035 ft 180 kts 231°
2026-05-08 15:17 39.74362 3.95629 8345 ft 179 kts 232°
2026-05-08 15:17 39.73599 3.94351 8647 ft 179 kts 233°
2026-05-08 15:18 39.72840 3.93069 8955 ft 179 kts 234°
2026-05-08 15:18 39.72099 3.91771 9261 ft 178 kts 236°
2026-05-08 15:18 39.71367 3.90475 9557 ft 178 kts 236°
2026-05-08 15:18 39.70639 3.89180 9858 ft 177 kts 236°
2026-05-08 15:19 39.69914 3.87888 10118 ft 177 kts 236°
2026-05-08 15:19 39.69191 3.86599 10376 ft 177 kts 236°
2026-05-08 15:19 39.68470 3.85312 10624 ft 176 kts 236°
2026-05-08 15:19 39.67745 3.84014 10825 ft 180 kts 236°
2026-05-08 15:20 39.66991 3.82664 10886 ft 189 kts 236°
2026-05-08 15:20 39.66198 3.81248 10928 ft 198 kts 236°
2026-05-08 15:20 39.65471 3.79690 10939 ft 206 kts 243°
2026-05-08 15:20 39.64815 3.78010 10951 ft 212 kts 244°
2026-05-08 15:21 39.64149 3.76277 10954 ft 217 kts 244°
2026-05-08 15:21 39.63450 3.74522 10956 ft 220 kts 243°
2026-05-08 15:21 39.62717 3.72762 10955 ft 223 kts 242°
2026-05-08 15:21 39.61970 3.70986 10957 ft 225 kts 242°
2026-05-08 15:22 39.61217 3.69197 10957 ft 227 kts 242°
2026-05-08 15:22 39.60459 3.67397 10949 ft 228 kts 243°
2026-05-08 15:22 39.59696 3.65589 10950 ft 229 kts 242°
2026-05-08 15:22 39.58934 3.63781 10967 ft 229 kts 242°
2026-05-08 15:23 39.58160 3.61948 10849 ft 234 kts 242°
2026-05-08 15:23 39.57382 3.60103 10728 ft 238 kts 242°
2026-05-08 15:23 39.56581 3.58206 10605 ft 242 kts 242°
2026-05-08 15:23 39.55768 3.56285 10469 ft 245 kts 242°
2026-05-08 15:24 39.54942 3.54332 10291 ft 248 kts 242°
2026-05-08 15:24 39.54107 3.52361 10129 ft 251 kts 242°
2026-05-08 15:24 39.53263 3.50364 9958 ft 253 kts 242°
2026-05-08 15:24 39.52413 3.48360 9779 ft 255 kts 242°
2026-05-08 15:25 39.51558 3.46342 9596 ft 256 kts 242°
2026-05-08 15:25 39.50699 3.44319 9415 ft 257 kts 242°
2026-05-08 15:25 39.49833 3.42283 9226 ft 258 kts 242°
2026-05-08 15:25 39.48967 3.40242 9054 ft 259 kts 242°
2026-05-08 15:26 39.48097 3.38194 8865 ft 260 kts 242°
2026-05-08 15:26 39.47440 3.36055 8689 ft 257 kts 262°
2026-05-08 15:26 39.47495 3.33742 8512 ft 259 kts 272°
2026-05-08 15:26 39.47597 3.31434 8341 ft 261 kts 270°
2026-05-08 15:27 39.47579 3.29077 8163 ft 263 kts 266°
2026-05-08 15:27 39.47424 3.26721 7992 ft 263 kts 263°
2026-05-08 15:27 39.47216 3.24358 7813 ft 265 kts 262°
2026-05-08 15:27 39.47010 3.21983 7647 ft 266 kts 263°
2026-05-08 15:28 39.46810 3.19600 7472 ft 267 kts 263°
2026-05-08 15:28 39.46625 3.17206 7321 ft 267 kts 263°
2026-05-08 15:28 39.46445 3.14827 7270 ft 264 kts 263°
2026-05-08 15:28 39.46276 3.12478 7110 ft 259 kts 263°
2026-05-08 15:29 39.46121 3.10169 6947 ft 257 kts 263°
2026-05-08 15:29 39.45972 3.07846 6805 ft 262 kts 263°
2026-05-08 15:29 39.45804 3.05487 6670 ft 264 kts 263°
2026-05-08 15:29 39.45629 3.03138 6530 ft 260 kts 262°
2026-05-08 15:30 39.45457 3.00823 6376 ft 257 kts 262°
2026-05-08 15:30 39.45277 2.98532 6216 ft 255 kts 263°
2026-05-08 15:30 39.45094 2.96254 6063 ft 254 kts 263°
2026-05-08 15:30 39.44913 2.93977 5913 ft 256 kts 262°
2026-05-08 15:31 39.44725 2.91665 5833 ft 260 kts 261°
2026-05-08 15:31 39.44533 2.89338 5788 ft 261 kts 262°
2026-05-08 15:31 39.44347 2.86998 5741 ft 262 kts 263°
2026-05-08 15:31 39.44168 2.84647 5597 ft 265 kts 263°
2026-05-08 15:32 39.43989 2.82288 5393 ft 262 kts 264°
2026-05-08 15:32 39.43828 2.79955 5209 ft 259 kts 263°
2026-05-08 15:32 39.43665 2.77642 5014 ft 258 kts 264°
2026-05-08 15:32 39.43487 2.75336 4827 ft 257 kts 262°
2026-05-08 15:33 39.43259 2.73042 4501 ft 255 kts 261°
2026-05-08 15:33 39.42998 2.70841 4178 ft 248 kts 260°
2026-05-08 15:33 39.42727 2.68662 3813 ft 245 kts 259°
2026-05-08 15:33 39.42473 2.66490 3480 ft 242 kts 259°
2026-05-08 15:34 39.42230 2.64372 3223 ft 234 kts 261°
2026-05-08 15:34 39.42008 2.62314 2964 ft 229 kts 261°
2026-05-08 15:34 39.41784 2.60301 2733 ft 224 kts 260°
2026-05-08 15:34 39.41580 2.58348 2601 ft 212 kts 266°
2026-05-08 15:35 39.41973 2.56598 2548 ft 202 kts 309°
2026-05-08 15:35 39.43000 2.55475 2519 ft 189 kts 326°
2026-05-08 15:35 39.44088 2.54513 2501 ft 188 kts 339°
2026-05-08 15:35 39.45344 2.54233 2495 ft 184 kts 360°
2026-05-08 15:36 39.46623 2.54183 2489 ft 181 kts 15°
2026-05-08 15:36 39.47352 2.54629 2494 ft 175 kts 47°
2026-05-08 15:36 39.47972 2.55934 2485 ft 171 kts 66°
2026-05-08 15:36 39.48505 2.57316 2468 ft 173 kts 67°
2026-05-08 15:37 39.49055 2.58763 2166 ft 182 kts 67°
2026-05-08 15:37 39.49605 2.60252 1932 ft 184 kts 67°
2026-05-08 15:37 39.50258 2.61662 1684 ft 175 kts 59°
2026-05-08 15:37 39.50886 2.62908 1459 ft 156 kts 63°
2026-05-08 15:38 39.51425 2.64092 1245 ft 150 kts 63°
2026-05-08 15:38 39.51960 2.65244 1059 ft 148 kts 62°
2026-05-08 15:38 39.52495 2.66351 872 ft 143 kts 62°
2026-05-08 15:38 39.52993 2.67412 718 ft 130 kts 59°
2026-05-08 15:39 39.53442 2.68374 533 ft 123 kts 60°
2026-05-08 15:39 39.53879 2.69289 363 ft 115 kts 58°
2026-05-08 15:39 39.54291 2.70148 214 ft 112 kts 59°
2026-05-08 15:39 39.54684 2.71003 93 ft 106 kts 59°
2026-05-08 15:40 39.55048 2.71772 35 ft 90 kts 59°
2026-05-08 15:40 39.55339 2.72382 35 ft 69 kts 57°
2026-05-08 15:40 39.55478 2.72703 35 ft 28 kts 71°
2026-05-08 15:40 39.55496 2.72883 35 ft 7 kts 88°
2026-05-08 15:41 39.55497 2.72947 35 ft 7 kts 90°
2026-05-08 15:41 39.55498 2.73008 35 ft 7 kts 89°
2026-05-08 15:41 39.55499 2.73066 35 ft 3 kts 88°
2026-05-08 15:41 39.55499 2.73068 35 ft 0 kts 88°
2026-05-08 15:43 39.55499 2.73071 35 ft 1 kts 88°
2026-05-08 15:43 39.55500 2.73092 35 ft 3 kts 88°
2026-05-08 15:44 39.55501 2.73131 35 ft 5 kts 86°
2026-05-08 15:44 39.55507 2.73181 35 ft 6 kts 74°
2026-05-08 15:44 39.55529 2.73234 35 ft 7 kts 58°
2026-05-08 15:44 39.55555 2.73288 35 ft 7 kts 58°
2026-05-08 15:45 39.55582 2.73347 35 ft 8 kts 59°
2026-05-08 15:45 39.55611 2.73409 35 ft 8 kts 59°
2026-05-08 15:45 39.55626 2.73480 35 ft 8 kts 104°
2026-05-08 15:45 39.55584 2.73528 35 ft 9 kts 149°
2026-05-08 15:46 39.55528 2.73572 35 ft 10 kts 148°
2026-05-08 15:46 39.55467 2.73620 35 ft 11 kts 148°
2026-05-08 15:46 39.55404 2.73671 35 ft 11 kts 148°
2026-05-08 15:46 39.55339 2.73723 35 ft 11 kts 148°
2026-05-08 15:47 39.55273 2.73774 35 ft 11 kts 150°
2026-05-08 15:47 39.55212 2.73824 35 ft 9 kts 148°
2026-05-08 15:47 39.55166 2.73783 35 ft 10 kts 249°
2026-05-08 15:47 39.55181 2.73709 35 ft 10 kts 266°
2026-05-08 15:48 39.55101 2.73530 35 ft 12 kts 239°
2026-05-08 15:48 39.55060 2.73441 35 ft 11 kts 239°
2026-05-08 15:48 39.55035 2.73359 35 ft 9 kts 266°
2026-05-08 15:49 39.55003 2.73324 35 ft 8 kts 184°
2026-05-08 15:49 39.54985 2.73323 35 ft 0 kts 184°